Showing default

GEESAT 3-07, 61017

Orbit data source: Space-Track

GEESAT 3-07, 61017 is a payload satellite owned by GeeSpace (CN) in LEO that was launched on Thu, 05 Sep 2024 UTC via a CHANG ZHENG 6 launch vehicle from the Taiyaun Space Center, China (TSC). Payloads include a variety of satellites, spacecraft, and rockets equipped with specific instruments for various scientific and technological missions. These include communications satellites like Starlink; space stations such as the ISS; scientific satellites like the Hubble; Earth observation satellites from companies like Planet Labs, Umbra, and HawkEye 360; GPS; miniature CubeSats for education and research; and military/defense satellites.

Loading next visibility...
GEESAT 3-07 details
Identifier
61017, 2024-159G
Orbit
LEO
Last TLE update10 hours ago
Origin
Flag of CNGeeSpace (CN / PRC)
ManufacturerTaizhou Xingkong
MissionOperational spacecraft
Bus & MotorGEESAT1, Unknown motor
Mass130 kg wet, 130 kg dry
Launch date (UTC)
2024-09-05 (4 months ago)
Launch vehicle
CHANG ZHENG 6
Launch site
Taiyaun Space Center, China (TSC)
Object type
Payload
Rocket body
Debris
Shape & HBRUnknown
Radar Cross SectionMedium (>0.1 m² and <1 m²)

Expand to show TLE details & history

TLE from 10 hours ago
0 GEESAT 3-07
1 61017U 24159G   25015.08489975  .00006558  00000-0  66644-3 0  9992
2 61017  49.9948 342.3547 0011723  50.6035 309.5943 14.91752437 19580
Epoch: 2025-01-15T02:02Z
Definitive object data (Epoch: 2025-01-15T02:02:15.338Z)
Latitude-0.00002°
Longitude-162.99153°
Altitude587.814 km
Speed7.57 km/s
True Right ascension22h 49m 25s
True Declination0° 00' 00"
Sunlit
Object was in daylight at TLE epoch
Visualization TLE readout
Latitude49.79109°
Longitude-65.85672°
Altitude591.987 km
Speed7.573 km/s
Apparent Right ascension02h 56m 03s
Apparent Declination8° 56' 25"
Sunlit
Object is in full shadow
Visualization observer readout
Local Sidereal Time12:46:56
Azimuth321.156° NNW
Elevation-32.742°
Doppler factor1
Orbital elements
Apogee altitude601.406 km
Perigee altitude585.061 km
Semi-major axis6,971.37 km
Eccentricity0.0011723
Inclination49.9948°
RAAN342.3547°
Arg. of periapsis50.6035°
True anomaly309.49069°
Mean anomaly309.5943°
Eccentric anomaly309.5425°
Mean motion3.72877 °/min
BSTAR0.00066644
Orbital period96.55 mins
Loading maneuver chart data...
Loading historical data...
Loading historical data...
Loading historical data...
Loading historical data...
Loading historical data...
Loading historical data...
Loading historical data...

GEESAT 3-07 Visibility forecast

Observer location: undefined°, undefined

Span
Click to sort rows by Start time (UTC) header in descending order
Start Az.
Max El. time (UTC)
Max El. Az.
Max El.
End time (UTC)
End Az.
4 mins2025-01-15 23:05:37.920Z159.334° S2025-01-15 23:07:37.920Z129.379° SE14.737°2025-01-15 23:09:37.920Z99.644° ESE
7 mins2025-01-16 00:44:37.920Z235.222° WSW2025-01-16 00:47:37.920Z240.411° WSW44.405°2025-01-16 00:51:37.920Z55.579° ENE
6 mins2025-01-16 02:26:37.920Z295.777° NW2025-01-16 02:29:37.920Z356.306° N24.271°2025-01-16 02:32:37.920Z41.952° NE
5 mins2025-01-16 04:08:37.920Z324.418° NNW2025-01-16 04:10:37.920Z358.029° N20.211°2025-01-16 04:13:37.920Z49.5° ENE
7 mins2025-01-16 05:49:37.920Z319.64° NNW2025-01-16 05:52:37.920Z26.507° NE34.275°2025-01-16 05:56:37.920Z97.364° ESE
6 mins2025-01-16 07:30:37.920Z283.139° WNW2025-01-16 07:33:37.920Z214.173° SW32.208°2025-01-16 07:36:37.920Z158.389° S
|